OBJECT A, 100780

Orbit data source: Space-Track

You're viewing an uncataloged RSO

Recently launched and/or uncataloged RSOs may have evolving metadata. Metadata may include the following, but is not limited to: Owner, Manufacturer, Bus, Motor, and Mission.

OBJECT A, 100780 is a Chinese satellite in SSO that was launched on Mon, 21 Sep 2026 UTC launched from the Jiuquan Satellite Launch Center, China (JSC). Unknown objects in Earth's orbit typically refer to objects detected orbiting the Earth but have not yet been identified or cataloged. These objects could be anything from previously untracked satellites, spent rocket stages, debris from satellite collisions, or even natural meteoroids temporarily captured by Earth's gravity.

Loading next visibility...
Identifier
100780, 2026-220A
Orbit
SSO
Country
Flag of CNCN / PRC
Related business
None
Manufacturer
Unknown
Mission
Operational spacecraft
Bus & Motor
Unknown
Mass
Unknown
Launch date (UTC)
Icon of a cake. It is the launch day of the satellite!2026-09-21 (11 hours ago)
Launch vehicle
Unknown
Launch site
Jiuquan Satellite Launch Center, China (JSC)
Object type
Unknown
Shape & HBR
Unknown
Radar Cross Section
RCS unknown

Expand to show TLE details & history
Last TLE update: 10 hours ago

TLE from 10 hours ago
0 OBJECT A
1 A0780U 26220A   26264.53752838  .00002808  00000-0  17360-3 0  9996
2 A0780  97.5465 337.9899 0013505 271.9932  87.9751 15.10597013   210
Epoch: 2026-09-21T12:54Z
TLE epoch observation values (Epoch: 2026-09-21T12:54:02.452Z)
Latitude
0.00001°
Longitude
144.06375°
Altitude
537.134 km
Speed
7.594 km/s
True Right ascension
22h 31m 57s
True Declination
0° 00' 00"
Sunlit
Object was in full shadow at epoch
Visualization orbit readout
Latitude
Unknown
Longitude
Unknown
Altitude
Unknown
Speed
Unknown
Apparent Right ascension
Unknown
Apparent Declination
Unknown
Sunlit
N/A
Visualization observer readout
Local Sidereal Time
15:36:46
Azimuth
Unknown
Elevation
Unknown
Doppler factor
Unknown
Orbital elements
Apogee altitude
540.694 km
Perigee altitude
522.031 km
Semi-major axis
6,909.5 km
Eccentricity
0.00135
Inclination
97.5465°
RAAN
337.9899°
Arg. of periapsis
271.9932°
True anomaly
88.12977°
Mean anomaly
87.9751°
Eccentric anomaly
88.05243°
Mean motion
3.77897 °/min
Orbital period
95.26 mins
BSTAR
0.0001736
Loading maneuver chart data...
Computing Atmospheric mass density...
Loading historical data...
Loading historical data...
Loading historical data...
Loading historical data...
Loading historical data...
Loading historical data...
Loading historical data...

Documentation

Showing up to 5 results
|